timestamp,wind_dir_avg,wind_spd_avg,wind_spd_max_dir,wind_spd_gust,battery_voltage,lat,long
2021-09-30 00:04:00+00:00,47.0,2.99,44.0,3.27,12.65,47.59359,-54.27349
2021-09-30 00:14:01+00:00,52.0,2.9,54.0,3.45,12.65,47.59359,-54.27349
2021-09-30 00:24:01+00:00,53.0,3.92,54.0,4.42,12.65,47.59359,-54.27349
2021-09-30 00:34:01+00:00,36.0,3.71,42.0,4.23,12.65,47.59359,-54.27349
2021-09-30 00:44:01+00:00,43.0,3.41,47.0,3.85,12.65,47.59359,-54.27349
2021-09-30 00:54:01+00:00,53.0,4.46,58.0,5.14,12.65,47.59359,-54.27349
2021-09-30 01:04:01+00:00,61.0,4.22,62.0,5.05,12.65,47.59359,-54.27349
2021-09-30 01:14:01+00:00,60.0,4.53,58.0,4.83,12.65,47.59359,-54.27349
2021-09-30 01:24:01+00:00,59.0,3.36,62.0,4.09,12.65,47.59359,-54.27349
2021-09-30 01:34:01+00:00,49.0,3.24,52.0,3.61,12.65,47.59359,-54.27349
2021-09-30 01:44:01+00:00,51.0,3.73,52.0,4.24,12.65,47.59359,-54.27349
2021-09-30 01:54:01+00:00,52.0,3.69,59.0,4.5,12.65,47.59359,-54.27349
2021-09-30 02:04:01+00:00,52.0,3.57,57.0,4.1,12.65,47.59359,-54.27349
2021-09-30 02:14:01+00:00,50.0,3.9,55.0,4.77,12.57,47.59359,-54.27349
2021-09-30 02:24:01+00:00,44.0,6.07,44.0,6.96,12.57,47.59359,-54.27349
2021-09-30 02:34:01+00:00,50.0,5.55,50.0,6.09,12.57,47.59359,-54.27349
2021-09-30 02:44:01+00:00,51.0,6.01,51.0,7.07,12.57,47.59359,-54.27349
2021-09-30 02:54:01+00:00,48.0,6.11,48.0,6.97,12.57,47.59359,-54.27349
2021-09-30 03:04:01+00:00,49.0,5.8,54.0,6.54,12.57,47.59359,-54.27349
2021-09-30 03:14:01+00:00,53.0,6.68,62.0,8.44,12.57,47.59359,-54.27349
2021-09-30 03:24:01+00:00,53.0,6.7,48.0,7.71,12.57,47.59359,-54.27349
2021-09-30 03:34:01+00:00,47.0,5.88,44.0,6.66,12.57,47.59359,-54.27349
2021-09-30 03:44:01+00:00,52.0,6.4,49.0,7.08,12.57,47.59359,-54.27349
2021-09-30 03:54:01+00:00,46.0,5.25,50.0,5.96,12.57,47.59359,-54.27349
2021-09-30 04:04:01+00:00,51.0,6.34,50.0,6.99,12.57,47.59359,-54.27349
2021-09-30 04:14:00+00:00,45.0,6.83,45.0,7.57,12.57,47.59359,-54.27349
2021-09-30 04:24:00+00:00,50.0,6.84,49.0,7.72,12.57,47.59359,-54.27349
2021-09-30 04:34:00+00:00,50.0,7.04,51.0,7.57,12.57,47.59359,-54.27349
2021-09-30 04:44:00+00:00,49.0,7.43,45.0,8.0,12.57,47.59359,-54.27349
2021-09-30 04:54:00+00:00,53.0,6.73,57.0,7.38,12.57,47.59359,-54.27349
2021-09-30 05:04:00+00:00,45.0,7.49,43.0,8.15,12.57,47.59359,-54.27349
2021-09-30 05:14:01+00:00,44.0,7.79,42.0,8.43,12.57,47.59359,-54.27349
2021-09-30 05:24:01+00:00,45.0,8.69,48.0,9.46,12.57,47.59359,-54.27349
2021-09-30 05:34:01+00:00,42.0,7.64,44.0,8.15,12.57,47.59359,-54.27349
2021-09-30 05:44:01+00:00,39.0,7.86,43.0,8.39,12.57,47.59359,-54.27349
2021-09-30 05:54:01+00:00,42.0,7.1,40.0,8.59,12.57,47.59359,-54.27349
2021-09-30 06:04:01+00:00,37.0,7.16,42.0,8.22,12.57,47.59359,-54.27349
2021-09-30 06:14:01+00:00,35.0,6.93,42.0,7.5,12.57,47.59359,-54.27349
2021-09-30 06:24:01+00:00,34.0,7.66,35.0,8.46,12.57,47.59359,-54.27349
2021-09-30 06:34:01+00:00,40.0,7.62,41.0,8.58,12.57,47.59359,-54.27349
2021-09-30 06:44:01+00:00,41.0,7.9,41.0,8.49,12.57,47.59359,-54.27349
2021-09-30 06:54:01+00:00,39.0,7.65,39.0,8.38,12.57,47.59359,-54.27349
2021-09-30 07:04:01+00:00,37.0,6.99,35.0,8.01,12.57,47.59359,-54.27349
2021-09-30 07:14:01+00:00,36.0,8.28,43.0,9.79,12.49,47.59359,-54.27349
2021-09-30 07:24:01+00:00,34.0,8.91,37.0,9.85,12.49,47.59359,-54.27349
2021-09-30 07:34:01+00:00,43.0,7.92,40.0,8.9,12.49,47.59359,-54.27349
2021-09-30 07:44:01+00:00,47.0,7.7,47.0,8.4,12.49,47.59359,-54.27349
2021-09-30 07:54:01+00:00,43.0,8.19,43.0,9.16,12.49,47.59359,-54.27349
2021-09-30 08:04:01+00:00,43.0,7.93,41.0,8.69,12.49,47.59359,-54.27349
2021-09-30 08:14:01+00:00,46.0,7.96,42.0,8.88,12.49,47.59359,-54.27349
2021-09-30 08:24:01+00:00,39.0,8.68,46.0,9.48,12.49,47.59359,-54.27349
2021-09-30 08:34:01+00:00,38.0,8.0,37.0,8.76,12.49,47.59359,-54.27349
2021-09-30 08:44:01+00:00,40.0,8.4,39.0,8.93,12.49,47.59359,-54.27349
2021-09-30 08:54:01+00:00,47.0,7.74,46.0,8.7,12.49,47.59359,-54.27349
2021-09-30 09:04:01+00:00,47.0,7.51,47.0,8.15,12.49,47.59359,-54.27349
2021-09-30 09:14:01+00:00,51.0,7.08,44.0,8.83,12.41,47.59359,-54.27349
2021-09-30 09:24:01+00:00,51.0,6.51,51.0,7.04,12.41,47.59359,-54.27349
2021-09-30 09:34:01+00:00,56.0,6.8,56.0,7.73,12.41,47.59359,-54.27349
2021-09-30 09:44:01+00:00,52.0,6.33,53.0,7.12,12.41,47.59359,-54.27349
2021-09-30 09:54:01+00:00,49.0,7.58,50.0,8.31,12.41,47.59359,-54.27349
2021-09-30 10:04:01+00:00,50.0,7.53,50.0,8.34,12.41,47.59359,-54.27349
2021-09-30 10:14:01+00:00,50.0,7.88,53.0,8.5,12.41,47.59359,-54.27349
2021-09-30 10:24:01+00:00,50.0,7.64,58.0,9.24,12.41,47.59359,-54.27349
2021-09-30 10:34:01+00:00,50.0,7.87,47.0,8.72,12.41,47.59359,-54.27349
2021-09-30 10:44:01+00:00,49.0,7.96,46.0,8.52,12.41,47.59359,-54.27349
2021-09-30 10:54:01+00:00,52.0,7.32,51.0,7.89,12.41,47.59359,-54.27349
2021-09-30 11:04:01+00:00,47.0,8.9,49.0,9.39,12.41,47.59359,-54.27349
2021-09-30 11:14:00+00:00,49.0,8.08,49.0,8.72,12.49,47.59359,-54.27349
2021-09-30 11:24:00+00:00,49.0,8.42,48.0,9.17,12.49,47.59359,-54.27349
2021-09-30 11:34:00+00:00,46.0,8.18,41.0,8.85,12.49,47.59359,-54.27349
2021-09-30 11:44:00+00:00,45.0,7.84,50.0,9.41,12.49,47.59359,-54.27349
2021-09-30 11:54:00+00:00,48.0,7.99,44.0,8.65,12.49,47.59359,-54.27349
2021-09-30 12:04:00+00:00,48.0,7.45,51.0,8.24,12.49,47.59359,-54.27349
2021-09-30 12:14:01+00:00,40.0,7.56,43.0,8.5,12.57,47.59359,-54.27349
2021-09-30 12:24:01+00:00,41.0,8.34,41.0,8.94,12.57,47.59359,-54.27349
2021-09-30 12:34:01+00:00,39.0,8.19,38.0,9.23,12.57,47.59359,-54.27349
2021-09-30 12:44:01+00:00,43.0,8.0,40.0,8.69,12.57,47.59359,-54.27349
2021-09-30 12:54:01+00:00,40.0,8.48,38.0,9.11,12.57,47.59359,-54.27349
2021-09-30 13:04:01+00:00,43.0,7.71,40.0,8.63,12.57,47.59359,-54.27349
2021-09-30 13:14:01+00:00,45.0,8.11,43.0,8.99,12.97,47.59359,-54.27349
2021-09-30 13:24:01+00:00,42.0,9.47,42.0,10.67,12.97,47.59359,-54.27349
2021-09-30 13:34:01+00:00,47.0,9.34,51.0,10.14,12.97,47.59359,-54.27349
2021-09-30 13:44:01+00:00,43.0,8.38,42.0,9.41,12.97,47.59359,-54.27349
2021-09-30 13:54:01+00:00,53.0,8.36,50.0,9.16,12.97,47.59359,-54.27349
2021-09-30 14:04:01+00:00,62.0,6.04,63.0,7.74,12.97,47.59359,-54.27349
2021-09-30 14:14:01+00:00,54.0,7.88,60.0,9.21,13.05,47.59359,-54.27349
2021-09-30 14:24:01+00:00,48.0,8.39,44.0,9.01,13.05,47.59359,-54.27349
2021-09-30 14:34:01+00:00,54.0,7.25,54.0,8.11,13.05,47.59359,-54.27349
2021-09-30 14:44:01+00:00,42.0,4.48,52.0,5.81,13.05,47.59359,-54.27349
2021-09-30 14:54:01+00:00,33.0,7.1,42.0,7.91,13.05,47.59359,-54.27349
2021-09-30 15:04:01+00:00,32.0,5.02,31.0,6.06,13.05,47.59359,-54.27349
2021-09-30 15:14:01+00:00,48.0,7.24,50.0,7.92,13.29,47.59359,-54.27349
2021-09-30 15:24:01+00:00,55.0,5.55,55.0,6.47,13.29,47.59359,-54.27349
2021-09-30 15:34:01+00:00,55.0,6.43,54.0,6.9,13.29,47.59359,-54.27349
2021-09-30 15:44:01+00:00,64.0,5.85,70.0,6.44,13.29,47.59359,-54.27349
2021-09-30 15:54:01+00:00,64.0,5.64,64.0,6.31,13.29,47.59359,-54.27349
2021-09-30 16:04:01+00:00,61.0,5.28,59.0,5.93,13.29,47.59359,-54.27349
2021-09-30 16:14:01+00:00,61.0,4.5,61.0,5.56,13.92,47.59359,-54.27349
2021-09-30 16:24:01+00:00,60.0,5.16,57.0,5.86,13.92,47.59359,-54.27349
2021-09-30 16:34:01+00:00,55.0,5.04,54.0,5.78,13.92,47.59359,-54.27349
2021-09-30 16:44:01+00:00,31.0,4.61,34.0,5.16,13.92,47.59359,-54.27349
2021-09-30 16:54:01+00:00,39.0,5.43,42.0,5.96,13.92,47.59359,-54.27349
2021-09-30 17:04:01+00:00,41.0,3.89,37.0,4.52,13.92,47.59359,-54.27349
2021-09-30 17:14:01+00:00,55.0,4.25,58.0,4.76,13.29,47.59359,-54.27349
2021-09-30 17:24:01+00:00,44.0,3.55,44.0,4.13,13.29,47.59359,-54.27349
2021-09-30 17:34:01+00:00,54.0,4.93,53.0,5.56,13.29,47.59359,-54.27349
2021-09-30 17:44:01+00:00,51.0,5.51,48.0,6.06,13.29,47.59359,-54.27349
2021-09-30 17:54:01+00:00,57.0,5.86,60.0,6.35,13.29,47.59359,-54.27349
2021-09-30 18:04:01+00:00,59.0,5.47,61.0,6.14,13.29,47.59359,-54.27349
2021-09-30 18:14:01+00:00,55.0,5.25,55.0,5.94,13.6,47.59359,-54.27349
2021-09-30 18:24:01+00:00,49.0,4.69,55.0,5.41,13.6,47.59359,-54.27349
2021-09-30 18:34:01+00:00,49.0,4.69,47.0,5.23,13.6,47.59359,-54.27349
2021-09-30 18:44:01+00:00,48.0,4.66,52.0,5.39,13.6,47.59359,-54.27349
2021-09-30 18:54:01+00:00,47.0,5.46,45.0,5.88,13.6,47.59359,-54.27349
2021-09-30 19:04:01+00:00,49.0,5.33,51.0,5.9,13.6,47.59359,-54.27349
2021-09-30 19:14:01+00:00,55.0,5.14,58.0,5.55,13.6,47.59359,-54.27349
2021-09-30 19:24:01+00:00,46.0,5.95,46.0,6.82,13.6,47.59359,-54.27349
2021-09-30 19:34:01+00:00,51.0,5.45,50.0,6.02,13.6,47.59359,-54.27349
2021-09-30 19:44:01+00:00,48.0,5.15,48.0,5.78,13.6,47.59359,-54.27349
2021-09-30 19:54:01+00:00,53.0,4.55,50.0,5.31,13.6,47.59359,-54.27349
2021-09-30 20:04:01+00:00,49.0,4.51,49.0,5.06,13.6,47.59359,-54.27349
2021-09-30 20:14:01+00:00,50.0,4.43,53.0,5.06,13.44,47.59359,-54.27349
2021-09-30 20:24:01+00:00,49.0,4.58,42.0,5.31,13.44,47.59359,-54.27349
2021-09-30 20:34:01+00:00,51.0,4.48,50.0,5.01,13.44,47.59359,-54.27349
2021-09-30 20:44:01+00:00,47.0,4.55,47.0,4.92,13.44,47.59359,-54.27349
2021-09-30 20:54:01+00:00,47.0,4.38,44.0,4.77,13.44,47.59359,-54.27349
2021-09-30 21:04:01+00:00,44.0,4.01,46.0,4.43,13.44,47.59359,-54.27349
2021-09-30 21:14:01+00:00,46.0,4.13,48.0,4.46,12.97,47.59359,-54.27349
2021-09-30 21:24:01+00:00,43.0,4.19,48.0,4.57,12.97,47.59359,-54.27349
2021-09-30 21:34:01+00:00,44.0,4.03,44.0,4.47,12.97,47.59359,-54.27349
2021-09-30 21:44:01+00:00,44.0,4.34,45.0,4.7,12.97,47.59359,-54.27349
2021-09-30 21:54:01+00:00,41.0,3.99,37.0,4.6,12.97,47.59359,-54.27349
2021-09-30 22:04:01+00:00,37.0,3.77,39.0,4.17,12.97,47.59359,-54.27349
2021-09-30 22:14:01+00:00,38.0,3.81,38.0,4.15,12.65,47.59359,-54.27349
2021-09-30 22:24:01+00:00,41.0,3.79,42.0,4.17,12.65,47.59359,-54.27349
2021-09-30 22:34:01+00:00,51.0,3.61,53.0,4.37,12.65,47.59359,-54.27349
2021-09-30 22:44:01+00:00,50.0,4.13,52.0,4.61,12.65,47.59359,-54.27349
2021-09-30 22:54:01+00:00,47.0,3.08,50.0,3.79,12.65,47.59359,-54.27349
2021-09-30 23:04:01+00:00,47.0,2.9,45.0,3.25,12.65,47.59359,-54.27349
2021-09-30 23:14:00+00:00,56.0,3.66,58.0,4.04,12.65,47.59359,-54.27349
2021-09-30 23:24:00+00:00,54.0,4.23,55.0,4.66,12.65,47.59359,-54.27349
2021-09-30 23:34:00+00:00,55.0,4.82,55.0,5.48,12.65,47.59359,-54.27349
2021-09-30 23:44:00+00:00,51.0,3.85,51.0,4.31,12.65,47.59359,-54.27349
2021-09-30 23:54:00+00:00,32.0,3.2,36.0,3.63,12.65,47.59359,-54.27349
